User: anonymous   Login
Location: Melbourne
(37.8170°S, 144.9670°E)
Time: 18:43:37
(UTC+11:00)
Language:

Cosmos 962 Rocket - Orbit

View from above orbital plane
View from above orbital plane
View from above satellite
View from above satellite

Ground track
Ground track

The orbit data is extracted from the following two-line orbital elements,

1 10461U 77107B   16343.87160700  .00000100  00000-0  85983-4 0  9998
2 10461  82.9468 154.6969 0032562 322.5318 145.4841 13.76770871964589
Epoch (UTC): 08 December 2016 20:55:06
Eccentricity: 0.0032562
inclination: 82.9468°
perigee height: 951 km
apogee height: 999 km
right ascension of ascending node: 154.6969°
argument of perigee: 322.5318°
revolutions per day: 13.76770871
mean anomaly at epoch: 145.4841°
orbit number at epoch: 96458

The dashed part of the orbit path shows where the satellite is in the earth's shadow,  

DLR